[[{"header":{"parameterUnit":"m.s-1","parameterCategory":1,"la1":30.2991,"la2":30.254,"lo1":-89.0895,"lo2":-89.0444,"dy":0.0017,"dx":0.0017,"nx":28,"ny":28,"refTime":"2024-06-23T21:00:00:Z","depth":0,"parameterNumber":2,"parameterNumberName":"U-component_of_WINDS"},"data":[0,0,0,0,0,0,0,0,0,0,0,0,0,0,0,0,0,0,0,0,0,0,0,0,0,0,0,0,0,0,0,0,0,0,0,0,0,0,0,0,0,0,0,0,0,0,0,0,0,0,0,0,0,0,0,0,0,0,1.0652,1.0653,0,1.0726,1.0727,1.0728,1.0651,1.0648,1.0645,1.0642,1.0726,1.0731,1.0736,0,0,0,0,0,0,0,0,0,0,0,0,0,1.0453,1.0457,1.0652,1.0653,1.0654,1.0726,1.0727,1.0728,1.0652,1.0648,1.0644,1.0641,1.0725,1.0731,1.0737,0,0,0,0,0,0,0,0,0,0,0,0,0,1.0535,1.0458,1.0652,1.0624,1.0623,1.0726,1.0727,1.0728,1.0653,1.0648,1.0643,1.0639,1.0723,1.073,1.0738,1.0874,0,0,1.0761,1.0764,0,0,0,0,0,0,0,0,1.053,1.0542,1.0628,1.0627,1.0625,1.0675,1.0687,1.0777,1.0654,1.0642,1.0642,1.0637,1.0713,1.0721,1.0745,1.0878,1.0882,1.0761,1.0766,1.0769,1.0771,0,0,0,0,0,0,0,1.0524,1.0538,1.0682,1.0629,1.0627,1.0611,1.0617,1.0704,1.0702,1.0642,1.0637,1.0646,1.0712,1.0738,1.0747,1.0883,1.0761,1.0768,1.0773,1.0775,1.1132,1.1136,0,0,0,0,0,0,1.0521,1.0534,1.0679,1.0684,1.0565,1.0618,1.0625,1.0663,1.0701,1.0702,1.065,1.0642,1.0728,1.0738,1.075,1.0912,1.0769,1.0776,1.0781,1.1127,1.1133,1.1138,0,0,0,0,0,0,1.0517,1.0534,1.0676,1.0607,1.0624,1.0626,1.0669,1.0667,1.0693,1.0706,1.0707,1.0677,1.0725,1.0739,1.0843,1.0914,1.078,1.0786,1.1121,1.1129,1.1135,1.1239,0,0,0,0,0,0,1.0511,1.0533,1.0584,1.0609,1.0628,1.0767,1.0674,1.0672,1.0706,1.0696,1.0732,1.0734,1.0722,1.0832,1.0851,1.0922,1.0792,1.1115,1.1124,1.1133,1.1229,1.1249,1.1266,0,0,0,0,0,1.0504,1.0611,1.0586,1.0604,1.0691,1.0771,1.0782,1.0765,1.0712,1.0763,1.0772,1.0732,1.0903,1.0844,1.0864,1.0939,1.111,1.1122,1.1132,1.1221,1.1245,1.1265,0,0,0,0,0,0,1.0597,1.0614,1.0587,1.0705,1.0737,1.0758,1.0823,1.0791,1.0841,1.083,1.0808,1.0817,1.0928,1.0943,1.0877,1.1073,1.0998,1.1014,1.1059,1.1082,1.11,1.1095,1.0799,0,0,0,0,0,1.0631,1.0692,1.0705,1.0808,1.0825,1.0821,1.0856,1.0839,1.0872,1.0886,1.0902,1.0938,1.1,1.1041,1.1099,1.123,1.1238,1.1292,1.131,1.1325,1.1339,1.1411,1.1435,1.1175,1.1175,1.1174,0,0,1.0703,1.0719,1.076,1.0827,1.085,1.0916,1.0833,1.0907,1.0957,1.0898,1.0997,1.101,1.1049,1.1168,1.1221,1.1184,1.1412,1.1339,1.1351,1.1357,1.1425,1.1449,1.1471,1.1182,1.1181,1.118,0,0,1.0867,1.0884,1.0972,1.0996,1.1031,1.1027,1.1048,1.1074,1.108,1.1178,1.1135,1.1195,1.1302,1.1331,1.136,1.1534,1.1501,1.1554,1.1651,1.172,1.1741,1.1759,1.1823,1.1846,1.1568,1.1568,1.1568,0,1.0952,1.1048,1.1023,1.1099,1.1131,1.1077,1.1168,1.1193,1.1246,1.127,1.1227,1.1359,1.1381,1.1506,1.1549,1.1573,1.1599,1.1551,1.1739,1.1757,1.1774,1.1835,1.1858,1.1575,1.1574,1.1573,1.1573,0,1.1151,1.1219,1.1286,1.1335,1.1374,1.1458,1.1447,1.149,1.147,1.1472,1.1573,1.1598,1.1659,1.1687,1.1669,1.181,1.1786,1.1742,1.1667,1.1806,1.1862,1.1885,1.1584,1.1581,1.1579,1.1578,0,0,1.1378,1.1411,1.1436,1.1458,1.1491,1.1544,1.1626,1.1683,1.1721,1.1759,1.1828,1.1918,1.1877,1.191,1.1895,1.1956,1.2094,1.1904,1.1905,1.194,1.2252,1.2287,1.2314,1.2071,1.2075,1.2078,1.2249,0,1.1544,1.1682,1.1662,1.1796,1.1859,1.1809,1.188,1.191,1.1913,1.1969,1.1974,1.2038,1.1978,1.1998,1.2056,1.2065,1.2157,1.2052,1.2138,1.2141,1.2131,1.2343,1.238,1.254,1.2271,1.2275,1.2278,0,1.1756,1.1799,1.1939,1.1963,1.1988,1.2052,1.2103,1.2156,1.2189,1.2188,1.2224,1.2197,1.2281,1.2203,1.2319,1.2248,1.2282,1.2291,1.2297,1.2306,1.2219,1.236,1.2591,1.2615,1.2312,1.2309,1.2307,0,1.1909,1.2002,1.2098,1.2118,1.2147,1.2194,1.2209,1.2237,1.2273,1.2318,1.2341,1.2397,1.2428,1.2472,1.2462,1.2406,1.2581,1.2502,1.2585,1.2585,1.2626,1.2624,1.2867,1.2645,1.2644,1.2644,1.2643,0,1.2098,1.2186,1.2167,1.2226,1.2324,1.23,1.2399,1.2408,1.2433,1.2495,1.2455,1.2514,1.2496,1.2555,1.2548,1.2646,1.266,1.2663,1.2661,1.2668,1.2668,1.2691,1.268,1.265,1.2649,1.2647,1.2646,0,1.2286,1.2277,1.2378,1.2397,1.2403,1.2475,1.2492,1.2549,1.2548,1.2627,1.2644,1.2645,1.2712,1.2705,1.2782,1.2777,1.2899,1.2882,1.2887,1.2884,1.2968,1.296,1.3236,1.3272,1.3025,1.3027,1.3029,0,1.2408,1.2474,1.2499,1.2536,1.2554,1.2614,1.265,1.2629,1.2668,1.271,1.2763,1.2826,1.2875,1.2986,1.2994,1.3053,1.3038,1.3131,1.3047,1.3052,1.3042,1.3038,1.3046,1.3148,1.3151,1.3153,1.3155,0,1.2626,1.2617,1.2668,1.2719,1.2762,1.2801,1.2836,1.2869,1.2852,1.2899,1.2965,1.3004,1.308,1.3144,1.3199,1.3217,1.3185,1.3181,1.3203,1.3213,1.3213,1.3215,1.2934,1.3175,1.3173,1.3172,1.3171,1.317,1.2786,1.2842,1.2868,1.2927,1.2951,1.2984,1.3039,1.3044,1.3098,1.3157,1.3142,1.3218,1.325,1.332,1.3343,1.3403,1.337,1.3403,1.3411,1.342,1.343,1.3201,1.3413,1.3413,1.3412,1.3412,1.3411,0,1.3002,1.3016,1.307,1.3119,1.3166,1.3128,1.3165,1.3207,1.3274,1.3305,1.3353,1.3431,1.3492,1.3505,1.3564,1.361,1.3597,1.3627,1.3624,1.3629,1.3456,1.3431,1.3636,1.3636,1.3636,1.3636,1.3636,1.3636,1.3121,1.3215,1.321,1.3316,1.3329,1.3401,1.3426,1.3458,1.3482,1.3569,1.3619,1.3626,1.365,1.371,1.3765,1.3768,1.3792,1.3828,1.3825,1.3664,1.3641,1.362,1.3597,1.3833,1.3834,1.3994,1.3995,1.3996]},{"header":{"parameterUnit":"m.s-1","parameterCategory":1,"la1":30.2991,"la2":30.254,"lo1":-89.0895,"lo2":-89.0444,"dy":0.0017,"dx":0.0017,"nx":28,"ny":28,"refTime":"2024-06-23T21:00:00:Z","depth":0,"parameterNumber":3,"parameterNumberName":"V-component_of_WINDS"},"data":[0,0,0,0,0,0,0,0,0,0,0,0,0,0,0,0,0,0,0,0,0,0,0,0,0,0,0,0,0,0,0,0,0,0,0,0,0,0,0,0,0,0,0,0,0,0,0,0,0,0,0,0,0,0,0,0,0,0,1.8712,1.8713,0,1.8798,1.8799,1.88,1.8746,1.8743,1.8741,1.8738,1.8825,1.8829,1.8834,0,0,0,0,0,0,0,0,0,0,0,0,0,1.8496,1.8501,1.8712,1.8713,1.8714,1.8798,1.8799,1.88,1.8746,1.8743,1.874,1.8737,1.8823,1.8829,1.8835,0,0,0,0,0,0,0,0,0,0,0,0,0,1.8587,1.8502,1.8712,1.8697,1.8697,1.8798,1.8799,1.8801,1.8747,1.8743,1.8739,1.8736,1.8822,1.8828,1.8835,1.8955,0,0,1.8857,1.886,0,0,0,0,0,0,0,0,1.8582,1.8595,1.8699,1.8699,1.8698,1.8757,1.8755,1.8852,1.8748,1.8728,1.8738,1.8734,1.8805,1.8814,1.8838,1.8959,1.8963,1.8857,1.8862,1.8865,1.8867,0,0,0,0,0,0,0,1.8576,1.8591,1.8746,1.87,1.87,1.8685,1.8694,1.8773,1.8787,1.8729,1.8726,1.8737,1.8805,1.8831,1.884,1.8964,1.8857,1.8863,1.8868,1.8871,1.918,1.9184,0,0,0,0,0,0,1.8571,1.8586,1.8743,1.8749,1.863,1.8692,1.8702,1.8742,1.8786,1.8789,1.874,1.8734,1.8821,1.8832,1.8843,1.8979,1.8865,1.8871,1.8875,1.9176,1.9181,1.9185,0,0,0,0,0,0,1.8567,1.8586,1.874,1.8666,1.8685,1.87,1.8746,1.8746,1.8773,1.8794,1.8796,1.8765,1.8819,1.8833,1.8926,1.8982,1.8874,1.8881,1.9171,1.9177,1.9183,1.9258,0,0,0,0,0,0,1.8561,1.8584,1.8632,1.8668,1.8689,1.8824,1.8749,1.875,1.8785,1.8778,1.8818,1.8821,1.8817,1.8916,1.8933,1.899,1.8886,1.9166,1.9174,1.9181,1.9251,1.9266,1.9279,0,0,0,0,0,1.8553,1.8651,1.8634,1.8654,1.8748,1.8827,1.8839,1.8833,1.879,1.8836,1.8848,1.8819,1.8974,1.8926,1.8945,1.9004,1.9162,1.9172,1.918,1.9244,1.9263,1.9279,0,0,0,0,0,0,1.8622,1.8655,1.8637,1.875,1.8786,1.8818,1.8876,1.8854,1.8903,1.8894,1.8884,1.8893,1.8989,1.9007,1.8952,1.9119,1.9061,1.9074,1.9103,1.9121,1.9135,1.9127,1.8892,0,0,0,0,0,1.865,1.8712,1.8738,1.8835,1.8853,1.8862,1.8896,1.8888,1.8924,1.8939,1.8959,1.8995,1.905,1.9088,1.9141,1.9254,1.9259,1.9304,1.9319,1.933,1.934,1.9395,1.9413,1.9215,1.9215,1.9214,0,0,1.8709,1.8735,1.8775,1.8849,1.8876,1.8937,1.8875,1.8945,1.8989,1.895,1.9037,1.9053,1.9092,1.9194,1.924,1.9211,1.9397,1.9342,1.9351,1.9355,1.9406,1.9425,1.9441,1.9221,1.922,1.9219,0,0,1.8846,1.8875,1.8955,1.8982,1.9023,1.9027,1.9046,1.9081,1.9089,1.9177,1.9146,1.9199,1.9297,1.9324,1.9351,1.9493,1.9466,1.9511,1.9584,1.9637,1.9653,1.9666,1.9711,1.9728,1.9522,1.9522,1.9522,0,1.8914,1.9007,1.8999,1.9069,1.91,1.9066,1.9144,1.9172,1.9228,1.9249,1.9217,1.9335,1.936,1.9464,1.9498,1.9523,1.9541,1.9505,1.9651,1.9665,1.9678,1.972,1.9738,1.9527,1.9527,1.9526,1.9526,0,1.9084,1.9149,1.9209,1.9261,1.9299,1.9374,1.9375,1.9414,1.9402,1.9408,1.9495,1.9523,1.9578,1.9603,1.9593,1.9704,1.9684,1.9653,1.9593,1.9701,1.974,1.9757,1.9534,1.9532,1.9531,1.953,0,0,1.9268,1.9312,1.9333,1.9354,1.9394,1.9443,1.9514,1.9567,1.9598,1.9638,1.9693,1.9775,1.9744,1.9774,1.9767,1.9814,1.9917,1.9775,1.9775,1.9795,2.0033,2.0053,2.0073,1.9901,1.9904,1.9906,2.0028,0,1.9402,1.9525,1.9518,1.9633,1.9688,1.9655,1.9716,1.9746,1.9754,1.9801,1.9809,1.9864,1.9823,1.9839,1.9885,1.9895,1.9963,1.9886,1.9948,1.995,1.9934,2.0095,2.0117,2.0231,2.0044,2.0047,2.0049,0,1.9577,1.9618,1.9738,1.9763,1.9787,1.9842,1.9886,1.9934,1.9965,1.9967,1.9998,1.9982,2.0049,1.9992,2.0082,2.003,2.0055,2.0063,2.0067,2.0068,2.0003,2.0095,2.0268,2.0283,2.0074,2.0072,2.007,0,1.969,1.9777,1.9857,1.9877,1.9912,1.9949,1.9966,1.9994,2.0024,2.0063,2.0082,2.0129,2.0154,2.019,2.0185,2.0144,2.0275,2.0218,2.0274,2.0274,2.03,2.0298,2.0474,2.0326,2.0325,2.0325,2.0325,0,1.9838,1.9911,1.9908,1.9957,2.0036,2.0026,2.0104,2.0116,2.014,2.0189,2.0165,2.0211,2.0204,2.025,2.0247,2.0318,2.0332,2.0332,2.0329,2.0331,2.033,2.0344,2.0334,2.0329,2.0328,2.0328,2.0327,0,1.9977,1.9979,2.0063,2.0087,2.0095,2.0151,2.0171,2.0216,2.022,2.0282,2.0296,2.0303,2.0354,2.0354,2.0414,2.0411,2.0497,2.0489,2.0486,2.0482,2.0536,2.0528,2.0723,2.0745,2.0587,2.0589,2.059,0,2.0069,2.0123,2.0152,2.0182,2.0199,2.025,2.0279,2.0271,2.0303,2.034,2.0379,2.0429,2.0467,2.055,2.0559,2.0603,2.0592,2.0657,2.0598,2.0596,2.0586,2.058,2.0583,2.0667,2.0669,2.067,2.0671,0,2.0229,2.0226,2.027,2.0312,2.0348,2.0382,2.0412,2.0439,2.0433,2.047,2.0521,2.0551,2.0609,2.0657,2.0698,2.0713,2.0689,2.069,2.0704,2.0704,2.0698,2.0696,2.0511,2.0685,2.0683,2.0682,2.0682,2.0681,2.0343,2.0387,2.0413,2.046,2.0482,2.051,2.0551,2.056,2.0603,2.0649,2.0642,2.0698,2.0723,2.0776,2.0794,2.0836,2.0813,2.0836,2.084,2.0844,2.0847,2.0695,2.0845,2.0844,2.0844,2.0844,2.0843,0,2.0497,2.0511,2.0555,2.0597,2.0633,2.0609,2.0641,2.0672,2.0722,2.0747,2.0784,2.0841,2.0885,2.0897,2.0939,2.097,2.096,2.0981,2.0976,2.0978,2.0869,2.0849,2.0988,2.0988,2.0988,2.0988,2.0988,2.0988,2.0581,2.0652,2.0652,2.0732,2.0745,2.0799,2.0818,2.0842,2.0862,2.0925,2.0961,2.0969,2.0987,2.103,2.1068,2.107,2.1084,2.1108,2.1105,2.1002,2.0987,2.0973,2.0954,2.1113,2.1113,2.1211,2.1212,2.1213]}]]